Regional Weather Roundup
Issued by NWS

Home | Current Version | Previous Version | Text Only | Print | Product List | Glossary On
Versions: 1 2 3 4 5 6 7 8 9 10 11 12 13 14 15 16 17 18 19 20 21 22 23 24 25 26 27 28 29 30 31 32 33 34 35 36 37 38 39 40 41 42 43 44 45 46 47 48 49 50
000
ASUS44 KOUN 061810
RWROK

WEATHER ROUNDUP FOR OKLAHOMA
NATIONAL WEATHER SERVICE NORMAN OK
100 PM CDT MON JUL 06 2015

NOTE: "FAIR" INDICATES FEW OR NO CLOUDS BELOW 12,000 FEET WITH NO
      SIGNIFICANT WEATHER AND/OR OBSTRUCTIONS TO VISIBILITY.

OKZ001>007-009>012-014-015-017-061900-
NORTHWEST OKLAHOMA AND THE PANHANDLE

CITY           SKY/WX    TMP DP  RH WIND       PRES   REMARKS
GAGE           SUNNY     91  69  48 SW15G26   29.93S HX  96
6HR MIN TEMP:  74; 6HR MAX TEMP:  92;

GUYMON         SUNNY     85  62  46 N20       30.01R
ENID/WOODRING  PTSUNNY   95  72  46 S23       29.89F HX 103
$$

OKZ016-021>023-033>039-044-045-061900-
SOUTHWEST OKLAHOMA

CITY           SKY/WX    TMP DP  RH WIND       PRES   REMARKS
LAWTON/REGL    MOSUNNY   90  72  55 S13G23    29.94F HX  97
6HR MIN TEMP:  75; 6HR MAX TEMP:  91;

LAWTON/FT SILL PTSUNNY   88  74  63 SW12G21   29.93F HX  97
FREDERICK      MOSUNNY   91  73  55 S18       29.91F HX  99
CLINTON        MOSUNNY   91  71  51 S18G31    29.95F HX  97
HOBART         MOSUNNY   90  72  55 S17G28    29.94F HX  97
ALTUS AFB      MOSUNNY   91  74  58 S17G25    29.91F HX 100
$$

OKZ018>020-024>031-061900-
CENTRAL OKLAHOMA

CITY           SKY/WX    TMP DP  RH WIND       PRES   REMARKS
OKLAHOMA CITY  MOSUNNY   88  75  65 S17       29.95F HX  97
6HR MIN TEMP:  75; 6HR MAX TEMP:  88;

OKC/WILEY POST PTSUNNY   88  74  63 S16G23    29.94F HX  96
OKC/TINKER AFB MOSUNNY   85  74  68 S18G24    29.95F HX  92
STILLWATER     PTSUNNY   91  73  55 S20       29.93F HX  99
GUTHRIE        PTSUNNY   89  74  60 S16G22    29.93F HX  98
$$

OKZ008-013-054>072-061900-
NORTHEAST OKLAHOMA

CITY           SKY/WX    TMP DP  RH WIND       PRES   REMARKS
TULSA          CLOUDY    88  75  65 S13G23    29.93F HX  97
6HR MIN TEMP:  77; 6HR MAX TEMP:  88;

TULSA/JONES    PTSUNNY   89  74  60 S10       29.95F HX  98
PONCA CITY     MOSUNNY   91  73  55 S13G25    29.90F HX  99
BARTLESVILLE   CLOUDY    88  76  67 S8G16     29.94F HX  99
MUSKOGEE       CLOUDY    84  75  74 S12       29.99F HX  92
$$

OKZ032-040>043-046>053-073>077-061900-
SOUTH CENTRAL/SOUTHEAST OKLAHOMA

CITY           SKY/WX    TMP DP  RH WIND       PRES   REMARKS
ARDMORE/DWNTWN CLOUDY    86  72  62 S13G18    29.98S HX  92
MCALESTER      PTSUNNY   84  74  71 S9G18     30.00F HX  91
$$




USA.gov is the U.S. government's official web portal to all federal, state and local government web resources and services.